Time,TemperatureF,DewpointF,PressureIn,WindDirection,WindDirectionDegrees,WindSpeedMPH,WindSpeedGustMPH,Humidity,HourlyPrecipIn,Conditions,Clouds,dailyrainin,SolarRadiationWatts/m^2,SoftwareType,DateUTC
2013-01-29 00:01:00,20.0,18.0,-100.00,WSW,250,9.0,19.0,93,0.00,,,0.01,0.000000,,2013-01-29 07:01:00,
2013-01-29 00:11:00,20.0,18.0,-100.00,WSW,250,9.0,19.0,93,0.00,,,0.01,0.000000,,2013-01-29 07:11:00,
2013-01-29 00:21:00,20.0,18.0,-100.00,WSW,250,9.0,19.0,93,0.00,,,0.01,0.000000,,2013-01-29 07:21:00,
2013-01-29 00:31:00,20.0,18.0,-100.00,WSW,250,9.0,19.0,93,0.00,,,0.01,0.000000,,2013-01-29 07:31:00,
2013-01-29 00:52:00,19.0,17.0,-100.00,WNW,282,2.0,16.0,92,0.00,,,0.01,0.000000,,2013-01-29 07:52:00,
2013-01-29 01:02:00,19.0,17.0,-100.00,WNW,282,2.0,16.0,92,0.00,,,0.01,0.000000,,2013-01-29 08:02:00,
2013-01-29 01:11:00,19.0,17.0,-100.00,WNW,282,2.0,16.0,92,0.00,,,0.01,0.000000,,2013-01-29 08:11:00,
2013-01-29 01:21:00,19.0,17.0,-100.00,WNW,282,2.0,16.0,92,0.00,,,0.01,0.000000,,2013-01-29 08:21:00,
2013-01-29 01:31:00,19.0,17.0,-100.00,WNW,282,2.0,16.0,92,0.00,,,0.01,0.000000,,2013-01-29 08:31:00,
2013-01-29 02:01:00,19.0,17.0,-100.00,WSW,244,5.0,9.0,92,0.00,,,0.01,0.000000,,2013-01-29 09:01:00,
2013-01-29 02:11:00,19.0,17.0,-100.00,WSW,244,5.0,9.0,92,0.00,,,0.01,0.000000,,2013-01-29 09:11:00,
2013-01-29 02:21:00,19.0,17.0,-100.00,WSW,244,5.0,9.0,92,0.00,,,0.01,0.000000,,2013-01-29 09:21:00,
2013-01-29 02:31:00,19.0,17.0,-100.00,WSW,244,5.0,9.0,92,0.00,,,0.01,0.000000,,2013-01-29 09:31:00,
2013-01-29 03:01:00,18.0,16.0,-100.00,WSW,253,7.0,16.0,92,0.00,,,0.01,0.000000,,2013-01-29 10:01:00,
2013-01-29 03:11:00,18.0,16.0,-100.00,WSW,253,7.0,16.0,92,0.00,,,0.01,0.000000,,2013-01-29 10:11:00,
2013-01-29 03:21:00,18.0,16.0,-100.00,WSW,253,7.0,16.0,92,0.00,,,0.01,0.000000,,2013-01-29 10:21:00,
2013-01-29 03:32:00,18.0,16.0,-100.00,WSW,253,7.0,16.0,92,0.00,,,0.01,0.000000,,2013-01-29 10:32:00,
2013-01-29 04:01:00,18.0,16.0,-100.00,WSW,245,8.0,16.0,91,0.00,,,0.01,0.000000,,2013-01-29 11:01:00,
2013-01-29 04:11:00,18.0,16.0,-100.00,WSW,245,8.0,16.0,91,0.00,,,0.01,0.000000,,2013-01-29 11:11:00,
2013-01-29 04:21:00,18.0,16.0,-100.00,WSW,245,8.0,16.0,91,0.00,,,0.01,0.000000,,2013-01-29 11:21:00,
2013-01-29 04:31:00,18.0,16.0,-100.00,WSW,245,8.0,16.0,91,0.00,,,0.01,0.000000,,2013-01-29 11:31:00,
2013-01-29 04:52:00,18.0,16.0,-100.00,WSW,242,8.0,17.0,91,0.00,,,0.01,0.000000,,2013-01-29 11:52:00,
2013-01-29 05:02:00,18.0,16.0,-100.00,WSW,242,8.0,17.0,91,0.00,,,0.01,0.000000,,2013-01-29 12:02:00,
2013-01-29 05:12:00,18.0,16.0,-100.00,WSW,242,8.0,17.0,91,0.00,,,0.01,0.000000,,2013-01-29 12:12:00,
2013-01-29 05:22:00,18.0,16.0,-100.00,WSW,242,8.0,17.0,91,0.00,,,0.01,0.000000,,2013-01-29 12:22:00,
2013-01-29 05:32:00,18.0,16.0,-100.00,WSW,242,8.0,17.0,91,0.00,,,0.01,0.000000,,2013-01-29 12:32:00,
2013-01-29 06:01:00,17.0,15.0,-100.00,WSW,248,14.0,30.0,91,0.00,,,0.01,0.000000,,2013-01-29 13:01:00,
2013-01-29 06:11:00,17.0,15.0,-100.00,WSW,248,14.0,30.0,91,0.00,,,0.01,0.000000,,2013-01-29 13:11:00,
2013-01-29 06:22:00,17.0,15.0,-100.00,WSW,248,14.0,30.0,91,0.00,,,0.01,0.000000,,2013-01-29 13:22:00,
2013-01-29 06:31:00,17.0,15.0,-100.00,WSW,248,14.0,30.0,91,0.00,,,0.01,0.000000,,2013-01-29 13:31:00,
2013-01-29 07:02:00,16.0,14.0,-100.00,WSW,251,16.0,30.0,90,0.00,,,0.01,0.000000,,2013-01-29 14:02:00,
2013-01-29 07:12:00,16.0,14.0,-100.00,WSW,251,16.0,30.0,90,0.00,,,0.01,0.000000,,2013-01-29 14:12:00,
2013-01-29 07:21:00,16.0,14.0,-100.00,WSW,251,16.0,30.0,90,0.00,,,0.01,0.000000,,2013-01-29 14:21:00,
2013-01-29 07:32:00,16.0,14.0,-100.00,WSW,251,16.0,30.0,90,0.00,,,0.01,0.000000,,2013-01-29 14:32:00,
2013-01-29 08:02:00,15.0,13.0,-100.00,WSW,249,15.0,34.0,90,0.00,,,0.01,6.000000,,2013-01-29 15:02:00,
2013-01-29 08:12:00,15.0,13.0,-100.00,WSW,249,15.0,34.0,90,0.00,,,0.01,6.000000,,2013-01-29 15:12:00,
2013-01-29 08:22:00,15.0,13.0,-100.00,WSW,249,15.0,34.0,90,0.00,,,0.01,6.000000,,2013-01-29 15:22:00,
2013-01-29 08:32:00,15.0,13.0,-100.00,WSW,249,15.0,34.0,90,0.00,,,0.01,6.000000,,2013-01-29 15:32:00,
2013-01-29 09:02:00,19.0,17.0,-100.00,WSW,251,12.0,27.0,90,0.00,,,0.00,129.000000,,2013-01-29 16:02:00,
2013-01-29 09:12:00,19.0,17.0,-100.00,WSW,251,12.0,27.0,90,0.00,,,0.00,129.000000,,2013-01-29 16:12:00,
2013-01-29 09:22:00,19.0,17.0,-100.00,WSW,251,12.0,27.0,90,0.00,,,0.00,129.000000,,2013-01-29 16:22:00,
2013-01-29 09:32:00,19.0,17.0,-100.00,WSW,251,12.0,27.0,90,0.00,,,0.00,129.000000,,2013-01-29 16:32:00,
2013-01-29 10:03:00,20.0,18.0,-100.00,WSW,247,18.0,29.0,90,0.00,,,0.00,438.000000,,2013-01-29 17:03:00,
2013-01-29 10:12:00,20.0,18.0,-100.00,WSW,247,18.0,29.0,90,0.00,,,0.00,438.000000,,2013-01-29 17:12:00,
2013-01-29 10:21:00,20.0,18.0,-100.00,WSW,247,18.0,29.0,90,0.00,,,0.00,438.000000,,2013-01-29 17:21:00,
2013-01-29 10:32:00,20.0,18.0,-100.00,WSW,247,18.0,29.0,90,0.00,,,0.00,438.000000,,2013-01-29 17:32:00,
2013-01-29 11:03:00,24.0,20.0,-100.00,WSW,249,15.0,33.0,86,0.00,,,0.00,724.000000,,2013-01-29 18:03:00,
2013-01-29 11:12:00,24.0,20.0,-100.00,WSW,249,15.0,33.0,86,0.00,,,0.00,724.000000,,2013-01-29 18:12:00,
2013-01-29 11:22:00,24.0,20.0,-100.00,WSW,249,15.0,33.0,86,0.00,,,0.00,724.000000,,2013-01-29 18:22:00,
2013-01-29 11:33:00,24.0,20.0,-100.00,WSW,249,15.0,33.0,86,0.00,,,0.00,724.000000,,2013-01-29 18:33:00,
2013-01-29 12:02:00,24.0,17.0,-100.00,WSW,248,15.0,34.0,74,0.00,,,0.00,837.000000,,2013-01-29 19:02:00,
2013-01-29 12:11:00,24.0,17.0,-100.00,WSW,248,15.0,34.0,74,0.00,,,0.00,837.000000,,2013-01-29 19:11:00,
2013-01-29 12:22:00,24.0,17.0,-100.00,WSW,248,15.0,34.0,74,0.00,,,0.00,837.000000,,2013-01-29 19:22:00,
2013-01-29 12:31:00,24.0,17.0,-100.00,WSW,248,15.0,34.0,74,0.00,,,0.00,837.000000,,2013-01-29 19:31:00,
2013-01-29 13:02:00,28.0,21.0,-100.00,WSW,244,15.0,33.0,75,0.00,,,0.00,948.000000,,2013-01-29 20:02:00,
2013-01-29 13:12:00,28.0,21.0,-100.00,WSW,244,15.0,33.0,75,0.00,,,0.00,948.000000,,2013-01-29 20:12:00,
2013-01-29 13:22:00,28.0,21.0,-100.00,WSW,244,15.0,33.0,75,0.00,,,0.00,948.000000,,2013-01-29 20:22:00,
2013-01-29 13:32:00,28.0,21.0,-100.00,WSW,244,15.0,33.0,75,0.00,,,0.00,948.000000,,2013-01-29 20:32:00,
2013-01-29 14:02:00,28.0,18.0,-100.00,WSW,249,15.0,34.0,65,0.00,,,0.00,971.000000,,2013-01-29 21:02:00,
2013-01-29 14:12:00,28.0,18.0,-100.00,WSW,249,15.0,34.0,65,0.00,,,0.00,971.000000,,2013-01-29 21:12:00,
2013-01-29 14:22:00,28.0,18.0,-100.00,WSW,249,15.0,34.0,65,0.00,,,0.00,971.000000,,2013-01-29 21:22:00,
2013-01-29 14:32:00,28.0,18.0,-100.00,WSW,249,15.0,34.0,65,0.00,,,0.00,971.000000,,2013-01-29 21:32:00,
2013-01-29 15:02:00,28.0,18.0,-100.00,WSW,250,17.0,30.0,66,0.00,,,0.00,884.000000,,2013-01-29 22:02:00,
2013-01-29 15:12:00,28.0,18.0,-100.00,WSW,250,17.0,30.0,66,0.00,,,0.00,884.000000,,2013-01-29 22:12:00,
2013-01-29 15:21:00,28.0,18.0,-100.00,WSW,250,17.0,30.0,66,0.00,,,0.00,884.000000,,2013-01-29 22:21:00,
2013-01-29 15:32:00,28.0,18.0,-100.00,WSW,250,17.0,30.0,66,0.00,,,0.00,884.000000,,2013-01-29 22:32:00,
2013-01-29 16:02:00,29.0,16.0,-100.00,WSW,253,13.0,29.0,59,0.00,,,0.00,712.000000,,2013-01-29 23:02:00,
2013-01-29 16:12:00,29.0,16.0,-100.00,WSW,253,13.0,29.0,59,0.00,,,0.00,712.000000,,2013-01-29 23:12:00,
2013-01-29 16:22:00,29.0,16.0,-100.00,WSW,253,13.0,29.0,59,0.00,,,0.00,712.000000,,2013-01-29 23:22:00,
2013-01-29 16:32:00,29.0,16.0,-100.00,WSW,253,13.0,29.0,59,0.00,,,0.00,712.000000,,2013-01-29 23:32:00,
2013-01-29 17:02:00,26.0,14.0,-100.00,WSW,251,20.0,31.0,60,0.00,,,0.00,481.000000,,2013-01-30 00:02:00,
2013-01-29 17:11:00,26.0,14.0,-100.00,WSW,251,20.0,31.0,60,0.00,,,0.00,481.000000,,2013-01-30 00:11:00,
2013-01-29 17:22:00,26.0,14.0,-100.00,WSW,251,20.0,31.0,60,0.00,,,0.00,481.000000,,2013-01-30 00:22:00,
2013-01-29 17:32:00,26.0,14.0,-100.00,WSW,251,20.0,31.0,60,0.00,,,0.00,481.000000,,2013-01-30 00:32:00,
2013-01-29 18:01:00,22.0,13.0,-100.00,WSW,251,15.0,33.0,68,0.00,,,0.00,188.000000,,2013-01-30 01:01:00,
2013-01-29 18:11:00,22.0,13.0,-100.00,WSW,251,15.0,33.0,68,0.00,,,0.00,188.000000,,2013-01-30 01:11:00,
2013-01-29 18:22:00,22.0,13.0,-100.00,WSW,251,15.0,33.0,68,0.00,,,0.00,188.000000,,2013-01-30 01:22:00,
2013-01-29 18:31:00,22.0,13.0,-100.00,WSW,251,15.0,33.0,68,0.00,,,0.00,188.000000,,2013-01-30 01:31:00,
2013-01-29 19:02:00,20.0,13.0,-100.00,WSW,257,14.0,28.0,74,0.00,,,0.00,3.000000,,2013-01-30 02:02:00,
2013-01-29 19:12:00,20.0,13.0,-100.00,WSW,257,14.0,28.0,74,0.00,,,0.00,3.000000,,2013-01-30 02:12:00,
2013-01-29 19:21:00,20.0,13.0,-100.00,WSW,257,14.0,28.0,74,0.00,,,0.00,3.000000,,2013-01-30 02:21:00,
2013-01-29 19:33:00,20.0,13.0,-100.00,WSW,257,14.0,28.0,74,0.00,,,0.00,3.000000,,2013-01-30 02:33:00,
2013-01-29 20:02:00,21.0,13.0,-100.00,WSW,257,11.0,24.0,70,0.00,,,0.00,0.000000,,2013-01-30 03:02:00,
2013-01-29 20:11:00,21.0,13.0,-100.00,WSW,257,11.0,24.0,70,0.00,,,0.00,0.000000,,2013-01-30 03:11:00,
2013-01-29 20:22:00,21.0,13.0,-100.00,WSW,257,11.0,24.0,70,0.00,,,0.00,0.000000,,2013-01-30 03:22:00,
2013-01-29 20:31:00,21.0,13.0,-100.00,WSW,257,11.0,24.0,70,0.00,,,0.00,0.000000,,2013-01-30 03:31:00,
2013-01-29 21:02:00,21.0,13.0,-100.00,West,265,11.0,21.0,70,0.00,,,0.00,0.000000,,2013-01-30 04:02:00,
2013-01-29 21:11:00,21.0,13.0,-100.00,West,265,11.0,21.0,70,0.00,,,0.00,0.000000,,2013-01-30 04:11:00,
2013-01-29 21:22:00,21.0,13.0,-100.00,West,265,11.0,21.0,70,0.00,,,0.00,0.000000,,2013-01-30 04:22:00,
2013-01-29 21:31:00,21.0,13.0,-100.00,West,265,11.0,21.0,70,0.00,,,0.00,0.000000,,2013-01-30 04:31:00,
2013-01-29 22:03:00,22.0,13.0,-100.00,West,268,13.0,24.0,67,0.00,,,0.00,0.000000,,2013-01-30 05:03:00,
2013-01-29 22:11:00,22.0,13.0,-100.00,West,268,13.0,24.0,67,0.00,,,0.00,0.000000,,2013-01-30 05:11:00,
2013-01-29 22:22:00,22.0,13.0,-100.00,West,268,13.0,24.0,67,0.00,,,0.00,0.000000,,2013-01-30 05:22:00,
2013-01-29 22:32:00,22.0,13.0,-100.00,West,268,13.0,24.0,67,0.00,,,0.00,0.000000,,2013-01-30 05:32:00,
2013-01-29 22:52:00,23.0,13.0,-100.00,West,267,11.0,24.0,66,0.00,,,0.00,0.000000,,2013-01-30 05:52:00,
2013-01-29 23:02:00,23.0,13.0,-100.00,West,267,11.0,24.0,66,0.00,,,0.00,0.000000,,2013-01-30 06:02:00,
2013-01-29 23:11:00,23.0,13.0,-100.00,West,267,11.0,24.0,66,0.00,,,0.00,0.000000,,2013-01-30 06:11:00,
2013-01-29 23:21:00,23.0,13.0,-100.00,West,267,11.0,24.0,66,0.00,,,0.00,0.000000,,2013-01-30 06:21:00,
2013-01-29 23:31:00,23.0,13.0,-100.00,West,267,11.0,24.0,66,0.00,,,0.00,0.000000,,2013-01-30 06:31:00,